CZ-4 DEB, 29039

Orbit data source: Space-Track

CZ-4 DEB, 29039 is space debris in SSO originally from a launch on Thu, 14 Oct 1999 UTC launched from the Taiyaun Space Center, China (TSC). Debris objects in space refer to the collection of defunct objects orbiting the Earth. Examples of debris include non-operational satellites, rocket bodies, and fragments generated from explosions, collisions, or faulty payload assembly.

Loading next visibility...
Identifier
29039, 1999-057NJ
Orbit
SSO
Country
Flag of CNCN / PRC
Related business
Manufacturer
Unknown
Mission
Spacecraft
Bus & Motor
Unknown
Mass
Unknown
Launch date (UTC)
1999-10-14 (26 years ago)
Launch vehicle
Unknown
Launch site
Taiyaun Space Center, China (TSC)
Object type
Payload
Rocket body
Debris
Shape & HBR
Unknown shape, 0.1 m
Radar Cross Section
Small (<0.1 m²)

Expand to show TLE details & history
Last TLE update: 2 days ago

TLE from 2 days ago
0 CZ-4 DEB
1 29039U 99057NJ  25301.89855432  .00006402  00000-0  97806-3 0  9993
2 29039  98.3714 345.0306 0047622 350.5353 182.5170 14.73392106213414
Epoch: 2025-10-28T21:33Z
TLE epoch observation values (Epoch: 2025-10-28T21:33:55.093Z)
Latitude
6.82092°
Longitude
165.07475°
Altitude
686.076 km
Speed
7.496 km/s
True Right ascension
11h 04m 08s
True Declination
6° 46' 48"
Sunlit
Object was in daylight at epoch
Visualization orbit readout
Latitude
Unknown
Longitude
Unknown
Altitude
Unknown
Speed
Unknown
Apparent Right ascension
Unknown
Apparent Declination
Unknown
Sunlit
N/A
Visualization observer readout
Local Sidereal Time
12:48:31
Azimuth
Unknown
Elevation
Unknown
Doppler factor
Unknown
Orbital elements
Apogee altitude
680.788 km
Perigee altitude
613.875 km
Semi-major axis
7,025.468 km
Eccentricity
0.00476
Inclination
98.3714°
RAAN
345.0306°
Arg. of periapsis
350.5353°
True anomaly
182.49318°
Mean anomaly
182.517°
Eccentric anomaly
182.50507°
Mean motion
3.68579 °/min
Orbital period
97.67 mins
BSTAR
0.00097806
Loading maneuver chart data...
Computing Atmospheric mass density...
Loading historical data...
Loading historical data...
Loading historical data...
Loading historical data...
Loading historical data...
Loading historical data...
Loading historical data...

Documentation

Showing up to 5 results
|